Plattsmouth, NE

8:49 AM CDT on October 19, 2017 (GMT -0500)
Plattsmouth Municipal

Weather History for KPMV - December, 2012

Change the Weather History Date:

Tuesday, December 4, 2012

  Actual Average (KOFF) Record (KOFF)
Temperature  
Mean Temperature 45 °F -  
Max Temperature 60 °F 41 °F 66 °F (1998)
Min Temperature 30 °F 24 °F 3 °F (2005)
Degree Days  
Heating Degree Days 20    
Moisture  
Dew Point 24 °F    
Average Humidity 45    
Maximum Humidity 70    
Minimum Humidity 23    
Precipitation  
Precipitation 0.00 in - - ()
Sea Level Pressure  
Sea Level Pressure 30.22 in    
Wind  
Wind Speed 6 mph (WNW)    
Max Wind Speed 12 mph    
Max Gust Speed -    
Visibility 10 miles    
Events      
Averages and records for this station are not official NWS values.
T = Trace of Precipitation, MM = Missing Value Source: NWS Daily Summary

Daily Weather History Graph

Daily Weather History Graph

Search for Another Location

Airport or City:

Trip Planner

Search our weather history database for the weather conditions in past years. The results will help you decide how hot, cold, wet, or windy it might be!

Date:

Astronomy

Dec. 04, 2012 Rise Set
Actual Time 7:32 AM CST 4:55 PM CST
Civil Twilight 7:01 AM CST 5:26 PM CST
Nautical Twilight 6:27 AM CST 6:00 PM CST
Astronomical Twilight 5:54 AM CST 6:33 PM CST
Moon 10:45 PM CST (12/4) 11:25 AM CST (12/4)
Length of Visible Light 10h 24m
Length of Day
9h 23m
Waning Gibbous, 69% of the Moon is Illuminated
Dec 4
Waning Gibbous
Dec 6
Last Quarter
Dec 13
New
Dec 19
First Quarter
Dec 28
Full

Hourly Weather History & Observations

Time (CST) Temp. Windchill Dew Point Humidity Pressure Visibility Wind Dir Wind Speed Gust Speed Precip Events Conditions
12:15 AM 37.2 °F 31.2 °F 26.4 °F 65% 30.09 in 10.0 mi WNW 8.1 mph - N/A   Clear
12:35 AM 37.2 °F 31.2 °F 25.9 °F 64% 30.10 in 10.0 mi WNW 8.1 mph - N/A   Clear
12:55 AM 36.7 °F 29.4 °F 25.7 °F 64% 30.09 in 10.0 mi WNW 10.4 mph - N/A   Clear
1:15 AM 37.0 °F 29.3 °F 25.3 °F 63% 30.09 in 10.0 mi WNW 11.5 mph - N/A   Clear
1:35 AM 37.4 °F 32.1 °F 25.3 °F 62% 30.10 in 10.0 mi WNW 6.9 mph - N/A   Clear
1:55 AM 37.4 °F 32.8 °F 24.6 °F 60% 30.11 in 10.0 mi WNW 5.8 mph - N/A   Clear
2:15 AM 36.9 °F 31.4 °F 24.3 °F 60% 30.11 in 10.0 mi WNW 6.9 mph - N/A   Clear
2:55 AM 35.6 °F 30.7 °F 24.1 °F 63% 30.11 in 10.0 mi West 5.8 mph - N/A   Clear
3:15 AM 34.7 °F 28.8 °F 23.9 °F 65% 30.13 in 10.0 mi West 6.9 mph - N/A   Clear
3:35 AM 35.1 °F 28.6 °F 23.5 °F 63% 30.13 in 10.0 mi WNW 8.1 mph - N/A   Clear
3:55 AM 34.7 °F 28.8 °F 23.5 °F 64% 30.14 in 10.0 mi West 6.9 mph - N/A   Clear
4:15 AM 35.6 °F 28.0 °F 23.5 °F 62% 30.15 in 10.0 mi West 10.4 mph - N/A   Clear
4:35 AM 35.8 °F 28.8 °F 23.2 °F 60% 30.15 in 10.0 mi West 9.2 mph - N/A   Clear
4:55 AM 36.7 °F 30.5 °F 22.8 °F 57% 30.16 in 10.0 mi West 8.1 mph - N/A   Clear
5:15 AM 36.3 °F 30.1 °F 22.1 °F 56% 30.16 in 10.0 mi West 8.1 mph - N/A   Clear
5:35 AM 35.8 °F 29.4 °F 22.1 °F 58% 30.17 in 10.0 mi West 8.1 mph - N/A   Clear
5:55 AM 35.8 °F 30.9 °F 21.7 °F 57% 30.17 in 10.0 mi West 5.8 mph - N/A   Clear
6:15 AM 34.9 °F 30.8 °F 21.6 °F 58% 30.19 in 10.0 mi West 4.6 mph - N/A   Clear
6:35 AM 36.1 °F 31.4 °F 21.2 °F 55% 30.19 in 10.0 mi West 5.8 mph - N/A   Clear
6:55 AM 35.4 °F - 21.2 °F 56% 30.21 in 10.0 mi Calm Calm - N/A   Clear
7:15 AM 36.5 °F 31.8 °F 21.0 °F 54% 30.21 in 10.0 mi West 5.8 mph - N/A   Clear
7:35 AM 30.7 °F - 21.2 °F 68% 30.22 in 10.0 mi Calm Calm - N/A   Clear
7:55 AM 32.0 °F 28.7 °F 23.2 °F 70% 30.22 in 10.0 mi SSE 3.5 mph - N/A   Clear
8:15 AM 33.8 °F 29.6 °F 22.8 °F 64% 30.23 in 10.0 mi SW 4.6 mph - N/A   Clear
8:35 AM 35.2 °F 31.2 °F 23.4 °F 62% 30.23 in 10.0 mi SW 4.6 mph - N/A   Clear
8:55 AM 37.6 °F - 25.0 °F 60% 30.24 in 10.0 mi Calm Calm - N/A   Clear
9:15 AM 39.9 °F 35.8 °F 25.0 °F 55% 30.24 in 10.0 mi WSW 5.8 mph - N/A   Clear
9:35 AM 42.4 °F 39.6 °F 25.7 °F 52% 30.25 in 10.0 mi West 4.6 mph - N/A   Clear
9:55 AM 45.0 °F 42.6 °F 25.5 °F 47% 30.24 in 10.0 mi WSW 4.6 mph - N/A   Clear
10:15 AM 48.0 °F - 24.6 °F 40% 30.25 in 10.0 mi WSW 5.8 mph - N/A   Clear
10:35 AM 50.2 °F - 24.4 °F 37% 30.25 in 10.0 mi West 5.8 mph - N/A   Clear
10:55 AM 51.8 °F - 24.4 °F 34% 30.26 in 10.0 mi WNW 3.5 mph - N/A   Clear
11:15 AM 53.1 °F - 24.4 °F 33% 30.25 in 10.0 mi West 4.6 mph - N/A   Clear
11:35 AM 55.6 °F - 24.6 °F 30% 30.24 in 10.0 mi West 5.8 mph - N/A   Clear
11:55 AM 57.6 °F - 24.3 °F 28% 30.24 in 10.0 mi West 8.1 mph - N/A   Clear
12:15 PM 58.6 °F - 22.3 °F 25% 30.24 in 10.0 mi West 9.2 mph - N/A   Clear
12:35 PM 59.5 °F - 22.1 °F 24% 30.23 in 10.0 mi West 9.2 mph - N/A   Clear
12:55 PM 60.1 °F - 21.9 °F 23% 30.23 in 10.0 mi West 6.9 mph - N/A   Clear
1:15 PM 59.0 °F - 23.5 °F 26% 30.23 in 10.0 mi NW 6.9 mph - N/A   Clear
1:35 PM 59.0 °F - 23.7 °F 26% 30.23 in 10.0 mi NW 6.9 mph - N/A   Clear
1:55 PM 59.0 °F - 22.8 °F 25% 30.23 in 10.0 mi NW 6.9 mph - N/A   Clear
2:15 PM 59.0 °F - 23.2 °F 25% 30.23 in 10.0 mi NW 3.5 mph - N/A   Clear
2:35 PM 59.0 °F - 23.0 °F 25% 30.22 in 10.0 mi WNW 5.8 mph - N/A   Clear
2:55 PM 59.4 °F - 22.6 °F 24% 30.22 in 10.0 mi NW 3.5 mph - N/A   Clear
3:15 PM 58.8 °F - 22.6 °F 25% 30.22 in 10.0 mi WNW 3.5 mph - N/A   Clear
3:35 PM 58.1 °F - 23.2 °F 26% 30.22 in 10.0 mi NNW 5.8 mph - N/A   Clear
3:55 PM 57.2 °F - 23.5 °F 27% 30.22 in 10.0 mi NNW 3.5 mph - N/A   Clear
4:15 PM 54.9 °F - 24.4 °F 31% 30.23 in 10.0 mi NW 3.5 mph - N/A   Clear
4:35 PM 53.4 °F - 24.1 °F 32% 30.24 in 10.0 mi Calm Calm - N/A   Clear
4:55 PM 50.4 °F - 23.5 °F 35% 30.24 in 10.0 mi NW 3.5 mph - N/A   Clear
5:15 PM 52.2 °F - 23.0 °F 32% 30.24 in 10.0 mi Calm Calm - N/A   Clear
5:35 PM 53.8 °F - 23.0 °F 30% 30.25 in 10.0 mi Calm Calm - N/A   Clear
5:55 PM 48.4 °F - 23.0 °F 37% 30.25 in 10.0 mi Calm Calm - N/A   Clear
6:15 PM 50.9 °F - 23.4 °F 34% 30.25 in 10.0 mi Calm Calm - N/A   Clear
6:35 PM 51.1 °F - 23.4 °F 34% 30.25 in 10.0 mi Calm Calm - N/A   Clear
6:55 PM 51.6 °F - 23.0 °F 33% 30.25 in 10.0 mi Calm Calm - N/A   Clear
7:15 PM 50.4 °F - 23.0 °F 34% 30.25 in 10.0 mi Calm Calm - N/A   Clear
7:35 PM 47.7 °F - 23.0 °F 38% 30.26 in 10.0 mi Calm Calm - N/A   Clear
7:55 PM 48.7 °F - 23.0 °F 36% 30.27 in 10.0 mi Calm Calm - N/A   Clear
8:15 PM 49.5 °F - 22.6 °F 35% 30.26 in 10.0 mi Calm Calm - N/A   Clear
8:35 PM 48.0 °F - 22.8 °F 37% 30.26 in 10.0 mi Calm Calm - N/A   Clear
8:55 PM 46.9 °F - 23.0 °F 39% 30.26 in 10.0 mi Calm Calm - N/A   Clear
9:15 PM 47.7 °F - 23.2 °F 38% 30.26 in 10.0 mi Calm Calm - N/A   Clear
9:35 PM 44.4 °F 42.0 °F 24.1 °F 45% 30.27 in 10.0 mi East 4.6 mph - N/A   Clear
9:55 PM 45.7 °F 43.4 °F 24.3 °F 43% 30.28 in 10.0 mi ENE 4.6 mph - N/A   Clear
10:15 PM 43.3 °F - 24.8 °F 48% 30.28 in 10.0 mi Calm Calm - N/A   Clear
10:35 PM 41.5 °F 38.6 °F 24.8 °F 51% 30.28 in 10.0 mi NE 4.6 mph - N/A   Clear
10:55 PM 39.6 °F - 25.2 °F 56% 30.28 in 10.0 mi Calm Calm - N/A   Clear
11:15 PM 40.8 °F - 24.8 °F 53% 30.29 in 10.0 mi Calm Calm - N/A   Clear
11:35 PM 41.0 °F 38.0 °F 24.8 °F 53% 30.29 in 10.0 mi East 4.6 mph - N/A   Clear
11:55 PM 41.0 °F 39.0 °F 24.6 °F 52% 30.29 in 10.0 mi East 3.5 mph - N/A   Clear